Wetterdaten: Woche 14.09.09 - 20.09.09 (KW38)
Datum Zeit Temperatur Luftfeuchte Luftdruck Niederschlag Windrichtung Wind
14.09.2009 00:00 10,9 C 80 % 1014,8 hPa 0,0 l/m NW 1,7 km/h (1 Bft)
14.09.2009 01:00 10,8 C 81 % 1014,4 hPa 0,0 l/m W-NW 6,0 km/h (2 Bft)
14.09.2009 02:00 10,1 C 88 % 1014,2 hPa 0,8 l/m N-NW 12,2 km/h (2 Bft)
14.09.2009 03:00 9,5 C 91 % 1014,2 hPa 0,0 l/m NW 8,8 km/h (2 Bft)
14.09.2009 04:00 9,3 C 90 % 1014,1 hPa 0,0 l/m W-NW 6,2 km/h (2 Bft)
14.09.2009 05:00 9,2 C 91 % 1013,7 hPa 0,0 l/m N 7,5 km/h (2 Bft)
14.09.2009 06:00 8,9 C 92 % 1013,7 hPa 0,0 l/m N-NW 5,2 km/h (1 Bft)
14.09.2009 07:00 8,8 C 92 % 1013,8 hPa 0,0 l/m N-NO 6,7 km/h (2 Bft)
14.09.2009 08:00 9,0 C 93 % 1014,0 hPa 0,6 l/m N 6,0 km/h (2 Bft)
14.09.2009 09:00 9,1 C 94 % 1014,0 hPa 1,2 l/m N 7,4 km/h (2 Bft)
14.09.2009 10:00 9,4 C 94 % 1013,9 hPa 1,0 l/m N 14,1 km/h (3 Bft)
14.09.2009 11:00 10,0 C 92 % 1013,7 hPa 0,0 l/m N-NO 14,6 km/h (3 Bft)
14.09.2009 12:00 11,1 C 87 % 1013,3 hPa 0,0 l/m N-NO 13,2 km/h (3 Bft)
14.09.2009 13:00 11,4 C 85 % 1012,8 hPa 0,2 l/m NO 6,9 km/h (2 Bft)
14.09.2009 14:00 12,2 C 84 % 1012,7 hPa 0,0 l/m NO 13,0 km/h (3 Bft)
14.09.2009 15:00 12,2 C 83 % 1012,5 hPa 0,0 l/m NO 10,8 km/h (2 Bft)
14.09.2009 16:00 12,3 C 80 % 1012,4 hPa 0,0 l/m N-NO 9,0 km/h (2 Bft)
14.09.2009 17:00 12,1 C 84 % 1012,3 hPa 0,0 l/m NW 6,3 km/h (2 Bft)
14.09.2009 18:00 11,6 C 90 % 1012,5 hPa 1,8 l/m N-NO 5,7 km/h (1 Bft)
14.09.2009 19:00 11,1 C 90 % 1012,4 hPa 0,0 l/m NO 3,9 km/h (1 Bft)
14.09.2009 20:00 9,9 C 91 % 1012,8 hPa 0,0 l/m NO 3,1 km/h (1 Bft)
14.09.2009 21:00 8,8 C 93 % 1013,0 hPa 0,0 l/m NO 4,1 km/h (1 Bft)
14.09.2009 22:00 8,1 C 94 % 1013,1 hPa 0,0 l/m NO 4,5 km/h (1 Bft)
14.09.2009 23:00 8,2 C 96 % 1013,3 hPa 0,0 l/m O-NO 7,4 km/h (2 Bft)
15.09.2009 00:00 8,9 C 94 % 1013,5 hPa 0,0 l/m O-NO 8,7 km/h (2 Bft)
15.09.2009 01:00 9,1 C 91 % 1013,2 hPa 0,0 l/m O-SO 8,4 km/h (2 Bft)
15.09.2009 02:00 9,2 C 90 % 1013,1 hPa 0,0 l/m O 13,7 km/h (3 Bft)
15.09.2009 03:00 9,3 C 90 % 1013,2 hPa 0,0 l/m O 9,1 km/h (2 Bft)
15.09.2009 04:00 9,3 C 89 % 1013,0 hPa 0,0 l/m O 9,8 km/h (2 Bft)
15.09.2009 05:00 9,3 C 88 % 1012,9 hPa 0,0 l/m O 9,6 km/h (2 Bft)
15.09.2009 06:00 9,4 C 88 % 1012,8 hPa 0,0 l/m O-NO 11,4 km/h (2 Bft)
15.09.2009 07:00 9,5 C 90 % 1013,2 hPa 0,0 l/m O-NO 6,4 km/h (2 Bft)
15.09.2009 08:00 9,7 C 90 % 1013,5 hPa 0,0 l/m O-NO 7,8 km/h (2 Bft)
15.09.2009 09:00 10,0 C 88 % 1013,8 hPa 0,0 l/m NO 9,9 km/h (2 Bft)
15.09.2009 10:00 10,7 C 85 % 1014,2 hPa 0,0 l/m O 9,0 km/h (2 Bft)
15.09.2009 11:00 11,3 C 83 % 1014,3 hPa 0,0 l/m O 10,6 km/h (2 Bft)
15.09.2009 12:00 12,8 C 78 % 1013,7 hPa 0,0 l/m NO 11,7 km/h (2 Bft)
15.09.2009 13:00 14,3 C 74 % 1013,4 hPa 0,0 l/m NO 12,9 km/h (3 Bft)
15.09.2009 14:00 15,3 C 71 % 1013,1 hPa 0,0 l/m O-NO 15,2 km/h (3 Bft)
15.09.2009 15:00 15,7 C 71 % 1012,8 hPa 0,0 l/m NO 17,7 km/h (3 Bft)
15.09.2009 16:00 15,6 C 73 % 1012,5 hPa 0,0 l/m NO 15,8 km/h (3 Bft)
15.09.2009 17:00 15,7 C 74 % 1012,7 hPa 0,0 l/m N-NO 15,6 km/h (3 Bft)
15.09.2009 18:00 15,2 C 77 % 1012,7 hPa 0,0 l/m O-NO 12,9 km/h (3 Bft)
15.09.2009 19:00 14,1 C 82 % 1012,8 hPa 0,0 l/m N-NO 8,4 km/h (2 Bft)
15.09.2009 20:00 12,7 C 88 % 1013,3 hPa 0,0 l/m N-NW 6,8 km/h (2 Bft)
15.09.2009 21:00 12,1 C 91 % 1013,5 hPa 0,0 l/m N 8,3 km/h (2 Bft)
15.09.2009 22:00 11,7 C 92 % 1012,9 hPa 0,0 l/m N 8,3 km/h (2 Bft)
15.09.2009 23:00 10,9 C 94 % 1012,7 hPa 0,0 l/m N-NW 5,5 km/h (1 Bft)
16.09.2009 00:00 10,7 C 95 % 1012,6 hPa 0,0 l/m N-NW 6,0 km/h (2 Bft)
16.09.2009 01:00 10,6 C 96 % 1012,6 hPa 0,0 l/m N-NW 4,7 km/h (1 Bft)
16.09.2009 02:00 10,8 C 96 % 1011,9 hPa 0,0 l/m N 6,7 km/h (2 Bft)
16.09.2009 03:00 11,2 C 97 % 1011,3 hPa 0,0 l/m NO 5,1 km/h (1 Bft)
16.09.2009 04:00 12,0 C 97 % 1010,9 hPa 0,0 l/m NO 6,4 km/h (2 Bft)
16.09.2009 05:00 12,5 C 97 % 1010,2 hPa 0,0 l/m O-NO 9,0 km/h (2 Bft)
16.09.2009 06:00 12,8 C 97 % 1009,9 hPa 0,0 l/m O-NO 10,6 km/h (2 Bft)
16.09.2009 07:00 12,7 C 97 % 1009,5 hPa 0,0 l/m NO 11,8 km/h (2 Bft)
16.09.2009 08:00 12,8 C 98 % 1009,5 hPa 0,0 l/m O-NO 13,4 km/h (3 Bft)
16.09.2009 09:00 13,2 C 95 % 1009,4 hPa 0,2 l/m NO 17,0 km/h (3 Bft)
16.09.2009 10:00 14,0 C 90 % 1009,3 hPa 0,0 l/m NO 20,0 km/h (4 Bft)
16.09.2009 11:00 15,3 C 85 % 1009,0 hPa 0,0 l/m NO 19,2 km/h (3 Bft)
16.09.2009 12:00 15,9 C 83 % 1008,8 hPa 0,0 l/m O-NO 18,9 km/h (3 Bft)
16.09.2009 13:00 17,1 C 78 % 1008,3 hPa 0,0 l/m NO 19,3 km/h (3 Bft)
16.09.2009 14:00 18,3 C 75 % 1007,9 hPa 0,0 l/m O-NO 19,8 km/h (4 Bft)
16.09.2009 15:00 19,1 C 72 % 1007,8 hPa 0,0 l/m O-NO 17,6 km/h (3 Bft)
16.09.2009 16:00 19,1 C 71 % 1007,7 hPa 0,0 l/m O-NO 17,0 km/h (3 Bft)
16.09.2009 17:00 18,8 C 76 % 1008,0 hPa 0,0 l/m NO 10,5 km/h (2 Bft)
16.09.2009 18:00 18,4 C 77 % 1008,0 hPa 0,0 l/m NO 9,9 km/h (2 Bft)
16.09.2009 19:00 17,8 C 79 % 1008,2 hPa 0,0 l/m NO 8,4 km/h (2 Bft)
16.09.2009 20:00 17,0 C 82 % 1008,3 hPa 0,0 l/m N-NO 7,6 km/h (2 Bft)
16.09.2009 21:00 16,8 C 82 % 1008,5 hPa 0,0 l/m NO 7,9 km/h (2 Bft)
16.09.2009 22:00 16,8 C 82 % 1008,3 hPa 0,0 l/m N-NO 9,9 km/h (2 Bft)
16.09.2009 23:00 16,2 C 85 % 1008,5 hPa 0,0 l/m N 8,5 km/h (2 Bft)
17.09.2009 00:00 15,8 C 87 % 1008,6 hPa 0,0 l/m N-NO 7,2 km/h (2 Bft)
17.09.2009 01:00 15,5 C 87 % 1008,7 hPa 0,0 l/m N-NO 9,9 km/h (2 Bft)
17.09.2009 02:00 15,2 C 90 % 1008,8 hPa 0,0 l/m N-NO 8,2 km/h (2 Bft)
17.09.2009 03:00 14,9 C 92 % 1009,1 hPa 0,2 l/m N-NO 4,8 km/h (1 Bft)
17.09.2009 04:00 14,7 C 94 % 1009,0 hPa 0,0 l/m N 3,5 km/h (1 Bft)
17.09.2009 05:00 14,6 C 94 % 1009,0 hPa 0,0 l/m N-NO 2,9 km/h (1 Bft)
17.09.2009 06:00 14,5 C 95 % 1009,1 hPa 2,0 l/m N-NO 3,5 km/h (1 Bft)
17.09.2009 07:00 14,4 C 95 % 1009,4 hPa 1,6 l/m N-NO 0,9 km/h (0 Bft)
17.09.2009 08:00 14,4 C 96 % 1009,8 hPa 1,2 l/m N-NO 3,1 km/h (1 Bft)
17.09.2009 09:00 14,5 C 96 % 1010,3 hPa 0,6 l/m N 0,7 km/h (0 Bft)
17.09.2009 10:00 15,0 C 97 % 1010,9 hPa 0,6 l/m N-NO 2,4 km/h (1 Bft)
17.09.2009 11:00 15,3 C 97 % 1011,3 hPa 0,2 l/m NO 4,0 km/h (1 Bft)
17.09.2009 12:00 15,7 C 97 % 1011,4 hPa 0,0 l/m O-SO 3,1 km/h (1 Bft)
17.09.2009 13:00 16,2 C 96 % 1011,6 hPa 0,2 l/m N-NO 3,5 km/h (1 Bft)
17.09.2009 14:00 16,7 C 94 % 1012,0 hPa 0,4 l/m NO 7,9 km/h (2 Bft)
17.09.2009 15:00 16,7 C 94 % 1012,1 hPa 0,2 l/m NO 7,5 km/h (2 Bft)
17.09.2009 16:00 16,6 C 93 % 1012,4 hPa 0,2 l/m NO 8,4 km/h (2 Bft)
17.09.2009 17:00 16,3 C 94 % 1012,7 hPa 0,0 l/m N-NO 7,5 km/h (2 Bft)
17.09.2009 18:00 16,2 C 94 % 1013,1 hPa 0,0 l/m N-NO 9,7 km/h (2 Bft)
17.09.2009 19:00 15,6 C 95 % 1013,7 hPa 0,0 l/m NO 8,0 km/h (2 Bft)
17.09.2009 20:00 15,3 C 95 % 1014,3 hPa 0,0 l/m N-NO 5,7 km/h (1 Bft)
17.09.2009 21:00 15,0 C 96 % 1014,9 hPa 0,0 l/m NO 6,0 km/h (2 Bft)
17.09.2009 22:00 15,0 C 96 % 1014,9 hPa 0,0 l/m N-NO 7,9 km/h (2 Bft)
17.09.2009 23:00 14,9 C 97 % 1015,0 hPa 0,0 l/m NO 5,6 km/h (1 Bft)
18.09.2009 00:00 14,8 C 97 % 1014,9 hPa 0,0 l/m NO 5,1 km/h (1 Bft)
18.09.2009 01:00 14,7 C 98 % 1014,8 hPa 0,0 l/m NO 5,3 km/h (1 Bft)
18.09.2009 02:00 14,7 C 98 % 1014,7 hPa 0,0 l/m NO 5,3 km/h (1 Bft)
18.09.2009 03:00 14,6 C 98 % 1014,6 hPa 0,0 l/m N-NO 5,6 km/h (1 Bft)
18.09.2009 04:00 14,4 C 98 % 1014,5 hPa 0,0 l/m NO 5,5 km/h (1 Bft)
18.09.2009 05:00 14,4 C 98 % 1014,5 hPa 0,0 l/m NO 4,7 km/h (1 Bft)
18.09.2009 06:00 14,3 C 98 % 1014,5 hPa 0,0 l/m O-NO 4,8 km/h (1 Bft)
18.09.2009 07:00 14,3 C 98 % 1014,5 hPa 0,0 l/m NO 5,3 km/h (1 Bft)
18.09.2009 08:00 14,4 C 99 % 1014,7 hPa 0,0 l/m O-NO 7,6 km/h (2 Bft)
18.09.2009 09:00 14,6 C 99 % 1014,6 hPa 0,0 l/m O-NO 7,1 km/h (2 Bft)
18.09.2009 10:00 15,1 C 98 % 1014,5 hPa 0,0 l/m O-NO 8,2 km/h (2 Bft)
18.09.2009 11:00 15,8 C 95 % 1014,4 hPa 0,0 l/m NO 10,5 km/h (2 Bft)
18.09.2009 12:00 16,8 C 91 % 1014,4 hPa 0,0 l/m NO 10,9 km/h (2 Bft)
18.09.2009 13:00 17,8 C 87 % 1014,1 hPa 0,0 l/m O-NO 10,5 km/h (2 Bft)
18.09.2009 14:00 18,9 C 83 % 1013,6 hPa 0,0 l/m O-NO 12,6 km/h (3 Bft)
18.09.2009 15:00 19,3 C 81 % 1013,3 hPa 0,0 l/m NO 13,6 km/h (3 Bft)
18.09.2009 16:00 19,2 C 82 % 1013,0 hPa 0,0 l/m O 15,7 km/h (3 Bft)
18.09.2009 17:00 19,2 C 81 % 1012,7 hPa 0,0 l/m O-NO 13,7 km/h (3 Bft)
18.09.2009 18:00 18,7 C 83 % 1012,7 hPa 0,0 l/m O-NO 10,9 km/h (2 Bft)
18.09.2009 19:00 17,7 C 87 % 1012,6 hPa 0,0 l/m O-NO 9,0 km/h (2 Bft)
18.09.2009 20:00 16,6 C 91 % 1012,7 hPa 0,2 l/m O-NO 6,7 km/h (2 Bft)
18.09.2009 21:00 15,8 C 92 % 1012,8 hPa 0,0 l/m N-NO 4,1 km/h (1 Bft)
18.09.2009 22:00 15,0 C 93 % 1012,6 hPa 0,0 l/m N-NO 3,7 km/h (1 Bft)
18.09.2009 23:00 14,3 C 94 % 1012,5 hPa 0,0 l/m NO 1,7 km/h (1 Bft)
19.09.2009 00:00 13,7 C 95 % 1012,6 hPa 0,0 l/m N-NO 3,3 km/h (1 Bft)
19.09.2009 01:00 13,8 C 97 % 1012,5 hPa 0,0 l/m N-NO 3,3 km/h (1 Bft)
19.09.2009 02:00 14,8 C 98 % 1012,3 hPa 0,0 l/m NO 4,5 km/h (1 Bft)
19.09.2009 03:00 15,2 C 98 % 1012,2 hPa 0,0 l/m O-NO 3,7 km/h (1 Bft)
19.09.2009 04:00 15,3 C 98 % 1012,2 hPa 0,0 l/m N 1,6 km/h (1 Bft)
19.09.2009 05:00 15,3 C 98 % 1012,5 hPa 0,0 l/m S-SO 0,8 km/h (0 Bft)
19.09.2009 06:00 14,9 C 97 % 1012,8 hPa 0,0 l/m S-SW 2,8 km/h (1 Bft)
19.09.2009 07:00 14,4 C 97 % 1012,9 hPa 0,0 l/m N 0,5 km/h (0 Bft)
19.09.2009 08:00 14,7 C 98 % 1013,3 hPa 0,0 l/m S-SW 4,0 km/h (1 Bft)
19.09.2009 09:00 15,5 C 98 % 1013,8 hPa 0,0 l/m S-SW 3,6 km/h (1 Bft)
19.09.2009 10:00 16,9 C 93 % 1014,0 hPa 0,0 l/m S-SO 4,8 km/h (1 Bft)
19.09.2009 11:00 18,5 C 83 % 1014,0 hPa 0,0 l/m W 6,7 km/h (2 Bft)
19.09.2009 12:00 19,7 C 75 % 1013,9 hPa 0,0 l/m W-NW 9,8 km/h (2 Bft)
19.09.2009 13:00 20,6 C 68 % 1013,7 hPa 0,0 l/m N-NW 7,8 km/h (2 Bft)
19.09.2009 14:00 20,7 C 66 % 1013,5 hPa 0,0 l/m N 4,7 km/h (1 Bft)
19.09.2009 15:00 21,4 C 64 % 1013,4 hPa 0,0 l/m N-NW 5,3 km/h (1 Bft)
19.09.2009 16:00 21,9 C 60 % 1013,2 hPa 0,0 l/m O-SO 7,3 km/h (2 Bft)
19.09.2009 17:00 21,3 C 64 % 1013,1 hPa 0,0 l/m S 4,8 km/h (1 Bft)
19.09.2009 18:00 19,2 C 81 % 1013,4 hPa 0,0 l/m N 0,7 km/h (0 Bft)
19.09.2009 19:00 17,3 C 88 % 1013,7 hPa 0,0 l/m N 1,5 km/h (1 Bft)
19.09.2009 20:00 16,6 C 90 % 1014,1 hPa 0,0 l/m N-NW 4,4 km/h (1 Bft)
19.09.2009 21:00 17,5 C 87 % 1014,5 hPa 0,0 l/m N-NO 6,3 km/h (2 Bft)
19.09.2009 22:00 16,9 C 89 % 1014,8 hPa 0,0 l/m N 4,4 km/h (1 Bft)
19.09.2009 23:00 16,3 C 91 % 1014,9 hPa 0,0 l/m N-NW 4,3 km/h (1 Bft)
20.09.2009 00:00 15,9 C 92 % 1015,1 hPa 0,0 l/m N-NW 4,9 km/h (1 Bft)
20.09.2009 01:00 15,6 C 93 % 1015,1 hPa 0,0 l/m N 4,7 km/h (1 Bft)
20.09.2009 02:00 15,1 C 94 % 1015,2 hPa 0,0 l/m N 5,5 km/h (1 Bft)
20.09.2009 03:00 14,9 C 96 % 1015,3 hPa 0,0 l/m N-NW 4,1 km/h (1 Bft)
20.09.2009 04:00 15,0 C 95 % 1015,2 hPa 0,0 l/m N 2,5 km/h (1 Bft)
20.09.2009 05:00 15,0 C 95 % 1015,2 hPa 0,0 l/m N 1,2 km/h (1 Bft)
20.09.2009 06:00 14,8 C 95 % 1015,3 hPa 0,0 l/m N 1,6 km/h (1 Bft)
20.09.2009 07:00 14,8 C 96 % 1015,7 hPa 0,0 l/m N-NO 6,3 km/h (2 Bft)
20.09.2009 08:00 15,0 C 94 % 1016,2 hPa 0,0 l/m N-NO 6,3 km/h (2 Bft)
20.09.2009 09:00 15,5 C 92 % 1016,6 hPa 0,0 l/m W-NW 6,0 km/h (2 Bft)
20.09.2009 10:00 15,7 C 91 % 1017,1 hPa 0,0 l/m N-NW 5,9 km/h (2 Bft)
20.09.2009 11:00 16,1 C 90 % 1017,2 hPa 0,0 l/m N-NO 8,0 km/h (2 Bft)
20.09.2009 12:00 17,5 C 86 % 1017,0 hPa 0,0 l/m NO 11,2 km/h (2 Bft)
20.09.2009 13:00 18,4 C 83 % 1016,9 hPa 0,0 l/m O-NO 9,0 km/h (2 Bft)
20.09.2009 14:00 19,3 C 79 % 1016,7 hPa 0,0 l/m N-NO 7,9 km/h (2 Bft)
20.09.2009 15:00 19,7 C 77 % 1016,5 hPa 0,0 l/m NO 11,4 km/h (2 Bft)
20.09.2009 16:00 19,9 C 77 % 1016,3 hPa 0,0 l/m O-NO 9,4 km/h (2 Bft)
20.09.2009 17:00 19,9 C 75 % 1016,1 hPa 0,0 l/m N-NO 6,5 km/h (2 Bft)
20.09.2009 18:00 19,3 C 80 % 1016,1 hPa 0,0 l/m N-NO 6,3 km/h (2 Bft)
20.09.2009 19:00 17,3 C 89 % 1016,6 hPa 0,0 l/m N-NO 4,1 km/h (1 Bft)
20.09.2009 20:00 15,9 C 93 % 1017,3 hPa 0,0 l/m N 3,5 km/h (1 Bft)
20.09.2009 21:00 15,3 C 95 % 1017,9 hPa 0,0 l/m N-NW 5,2 km/h (1 Bft)
20.09.2009 22:00 15,0 C 95 % 1018,2 hPa 0,0 l/m N-NW 5,7 km/h (1 Bft)
20.09.2009 23:00 14,5 C 95 % 1018,4 hPa 0,0 l/m N 3,7 km/h (1 Bft)
Min-Datum _ 14.09.09 19.09.09 16.09.09 - - 14.09.09
_ Min-Zeit 22:40 16:20 16:20 - - 00:20
Minimum _ 7,9 C 59 % 1007,6 hPa - - 0,0 km/h (0 Bft)
Max-Datum _ 19.09.09 19.09.09 20.09.09 17.09.09 - 16.09.09
_ Max-Zeit 16:20 02:40 23:25 06:30 - 10:30
Maximum _ 22,1 C 100 % 1018,6 hPa 2,0 l/m - 24,1 km/h
NO (4 Bft)
Durchschnitt _ 14,6 C 89 % 1013,0 hPa #13,4 l/m NO 7,6 km/h (2 Bft)